Location: Kelshall
(52.0000°N, 0.0500°W)
Time: 03:07:10
(UTC+00:00)

ATLAS CENTAUR R/B - Pass Details

Date: 21 January 2021
Orbit: 475 x 670 km, 64.7° (Epoch: 06 March)

Event Time Altitude Azimuth Distance (km) Brightness Sun altitude
Rises 05:50:07 0° 176° (S) 2,540 4.9 -18.8°
Reaches altitude 10° 05:52:53 10° 154° (SSE) 1,650 4.2 -18.3°
Maximum altitude 05:55:08 16° 115° (ESE) 1,331 4.3 -18.0°
Drops below altitude 10° 05:57:24 10° 77° (ENE) 1,650 4.8 -17.6°
Sets 06:00:09 0° 55° (NE) 2,539 5.4 -17.2°
